Weather in Abganerovo

Russia / Volgograd Oblast     48°04′34″N   44°10′58″E
В апреле 2022 года жителям России запретили посещать сайт meteo.paraplan.net по решению Генеральной прокуратуры. Аудитория сайта уменьшилась в 10 раз. Владельцы сайта не видят смысла в поддержке погодного сервера в таких условиях. Сайт будет закрыт в октябре.
temp.,
°C
wind,
m/s
gust,
m/s
humid.,
%
clouds,
%
prec.,
mm/h
press.,
hPa
HPBL,
m
25 september, sun
sun2500:00+11ssw6128885 1.4 1013525
03:00+10w7128735 2.0 1013894
06:00+10wsw614815 0.1 1014630
09:00+13wsw1014625 0.1 10151285
12:00+15w12144881 0.0 10151896
15:00+15w9154898 0.0 10152177
18:00+16w9144586 0.0 10151296
21:00+14wsw814525 0.0 1017714
26 september, mon
mon2600:00+12wsw8156410 0.0 1017519
03:00+11wsw613716 0.0 1018340
06:00+10wsw51277100 0.0 1018308
09:00+14w6105599 0.0 1019801
12:00+18w7103987 0.0 10191906
15:00+17wsw6758100 0.0 10191137
18:00+16sw3558100 0.0 1019117
21:00+15sw366065 0.0 1019130
27 september, tue
tue2700:00+14sw336314 0.0 101845
03:00+14s3359100 0.0 101725
06:00+13sse4556100 0.0 101681
09:00+16s5870100 0.0 1016380
12:00+20sse7854100 0.0 10151290
15:00+22sse6748100 0.0 10131601
18:00+19se465698 0.0 1012112
21:00+18se4116497 0.0 1012249
28 september, wed
wed2800:00+17se51269100 0.0 1010297
03:00+15se4779100 0.0 1010145
06:00+15ese4686100 0.0 1009113
09:00+18se5677100 0.0 1009328
12:00+21se5660100 0.0 1008669
15:00+22se4553100 0.0 1007905
18:00+21sse4758100 0.0 1006212
21:00+19ssw4864100 0.0 1007153
29 september, thu
thu2900:00+19ssw3767100 0.0 1007158
03:00+17wsw49722 0.0 1007187
06:00+15w510842 0.0 1008199
09:00+20w57650 0.0 1009453
12:00+24w675013 0.0 10091652
15:00+24w78450 0.0 10091813
18:00+21w475317 0.0 1010140
21:00+19nnw376492 0.1 1012291